Other Public Products
Issued by NWS Charleston, SC

Current Version | Previous Version | Graphics & Text | Print | Product List | Glossary On
Versions: 1 2 3 4 5 6 7 8 9 10 11 12 13 14 15 16 17 18 19 20 21 22 23 24 25 26 27 28 29 30 31 32 33 34 35 36 37 38 39 40 41 42 43 44 45 46 47 48 49 50
000 FPUS82 KCHS 192027 OPUCHS TEST...KCHS/KSAV Gateway Observations...TEST National Weather Service Charleston SC 300 PM EST SUN FEB 19 2017 NOTE: "fair" indicates few or no clouds below 12,000 feet with no significant weather and/or obstructions to visibility. SCZ050-WAZ558-NCZ071-TXZ119-213-PAZ071-DCZ001-FLZ074-172-MI076- NYZ176-178-MAZ016-IL014-TNZ027-NJZ106-GAZ044-MD014-192100- ...Gateway Observations for Charleston International... CITY SKY/WX TMP DP RH WIND PRES REMARKS Chas Airport MOSUNNY 76 48 37 N15 29.98S Seattle LGT RAIN 46 39 76 S15G25 29.48R Charlotte MOSUNNY 70 43 37 N9 30.02F Dallas DFW CLOUDY 74 66 76 SE15 29.85F Dallas Love CLOUDY 75 65 70 SE18G28 29.86F Philladelphia MOSUNNY 69 37 30 W14 29.85R Wash National MOSUNNY 71 43 36 NW14 29.91S Baltimore MOSUNNY 70 42 36 NW10G23 29.88S Miami PTSUNNY 84 64 50 W10G17 30.00S Detroit MOSUNNY 65 28 24 W12 30.00R Newark MOSUNNY 68 33 27 W14G23 29.79S Laguardia MOSUNNY 66 30 26 W14G22 29.79S J F K MOSUNNY 67 31 26 NW16G29 29.80S Boston Logan PTSUNNY 59 31 34 W17 29.68S Ft. Lauderdale PTSUNNY 88 62 41 NW13 29.98F Chicago O`Hare MOSUNNY 68 31 25 N3 30.03F Chicago Midway PTSUNNY 65 31 28 E7 30.04F Houston Bush PTSUNNY 78 67 68 SE18 29.90F Houston Hobby PTSUNNY 79 66 64 SE17G26 29.89F Nashville MOSUNNY 67 50 54 E3 30.11F Atlanta MOSUNNY 68 49 50 N13 30.06F $$ GAZ044-118-TXZ119-213-NCZ071-DCZ001-MDZ014-506-PAZ021-071-NJZ106- NYZ176-178-MAZ106-OHZ011-021-055-MIZ076-KYZ091-ILZ014-INZ047- MNZ060-192100- ...Gateway Observations for Savannah International... CITY SKY/WX TMP DP RH WIND PRES REMARKS Savannah Arpt MOSUNNY 76 49 38 NW10 30.00F Atlanta MOSUNNY 68 49 50 N13 30.06F Charlotte MOSUNNY 70 43 37 N9 30.02F Dallas DFW CLOUDY 74 66 76 SE15 29.85F Houston Bush PTSUNNY 78 67 68 SE18 29.90F Wash National MOSUNNY 71 43 36 NW14 29.91S Wash Dulles MOSUNNY 68 40 35 W20 29.91F Baltimore MOSUNNY 70 42 36 NW10G23 29.88S Philadelphia MOSUNNY 69 37 30 W14 29.85R Newark MOSUNNY 68 33 27 W14G23 29.79S Laguardia MOSUNNY 66 30 26 W14G22 29.79S J F K MOSUNNY 67 31 26 NW16G29 29.80S Boston PTSUNNY 59 31 34 W17 29.68S Pittsburg SUNNY 64 36 35 W13 29.97F Akron MOSUNNY 63 35 35 NW10 30.00S Cleveland SUNNY 63 31 30 W15G23 30.03R Cincinnati MOSUNNY 58 47 66 SW9 30.09S Columbus CLOUDY 51 45 80 SW9 30.08R Detroit MOSUNNY 65 28 24 W12 30.00R Chicago O`Hare MOSUNNY 68 31 25 N3 30.03F Minneapolis PTSUNNY 59 40 49 SE14 29.89F Indianapolis MOSUNNY 63 45 51 VRB3 30.07S $$

USA.gov is the U.S. government's official web portal to all federal, state and local government web resources and services.